Location: Brodeslavy
(49.9527°N, 13.5567°E)
Time: 21:08:36
(UTC+00:00)

Cosmos 841 Rocket - Pass Details

Date: 17 June 2025
Orbit: 742 x 768 km, 74.0° (Epoch: 16 July)

Event Time Altitude Azimuth Distance (km) Brightness Sun altitude
Rises 22:56:05 0° 333° (NNW) 3,249 8.0 -16.6°
Reaches altitude 10° 22:58:29 10° 330° (NNW) 2,317 6.9 -16.6°
Maximum altitude 23:03:39 59° 252° (WSW) 880 3.7 -16.6°
Enters shadow 23:06:15 28° 183° (S) 1,392 4.2 -16.6°
